Regional Weather Roundup
Issued by NWS

Home | Current Version | Previous Version | Text Only | Print | Product List | Glossary On
Versions: 1 2 3 4 5 6 7 8 9 10 11 12 13 14 15 16 17 18 19 20 21 22 23 24 25 26 27 28 29 30 31 32 33 34 35 36 37 38 39 40 41 42 43 44 45 46 47 48 49 50
000
ASUS44 KBMX 260610
RWRAL

ALABAMA REGIONAL WEATHER ROUNDUP
NATIONAL WEATHER SERVICE BIRMINGHAM AL
100 AM CDT WED APR 26 2017

NOTE: "FAIR" INDICATES FEW OR NO CLOUDS BELOW 12,000 FEET
WITH NO SIGNIFICANT WEATHER AND/OR OBSTRUCTIONS TO VISIBILITY.

THE REMARK "TC" DENOTES TEMPERATURE IN DEGREES CELSIUS.

ALZ001>011-014-016>018-020-260700-
NORTH ALABAMA

CITY           SKY/WX    TMP DP  RH WIND       PRES   REMARKS
MUSCLE SHOALS  CLEAR     60  54  80 S3        29.71R
6HR MIN TEMP:  59; 6HR MAX TEMP:  76;

HUNTSVILLE     CLEAR     61  58  90 SE6       29.72S
6HR MIN TEMP:  60; 6HR MAX TEMP:  76;

DECATUR        CLEAR     58  56  93 SE3       29.72S
6HR MIN TEMP:  58; 6HR MAX TEMP:  72;

HALEYVILLE     FAIR      64  56  75 S7        29.73F
6HR MIN TEMP:  63; 6HR MAX TEMP:  74;

GADSDEN        CLEAR     56  55  97 CALM      29.76  FOG
6HR MIN TEMP:  55; 6HR MAX TEMP:  75;

$$

ALZ012-013-022-023-030>036-040>044-260700-
WEST CENTRAL ALABAMA

CITY           SKY/WX    TMP DP  RH WIND       PRES   REMARKS
TUSCALOOSA     CLEAR     61  58  90 S5        29.74R
6HR MIN TEMP:  60; 6HR MAX TEMP:  76;

$$

ALZ015-024>027-033>036-040>044-260700-
CENTRAL ALABAMA

CITY           SKY/WX    TMP DP  RH WIND       PRES   REMARKS
BIRMINGHAM     CLEAR     66  56  70 S5        29.77S
6HR MIN TEMP:  63; 6HR MAX TEMP:  78;

MONTGOMERY     CLEAR     64  55  72 S6        29.78R
6HR MIN TEMP:  62; 6HR MAX TEMP:  78;

SHELBY CO ARPT CLEAR     61  59  93 CALM      29.76S
6HR MIN TEMP:  60; 6HR MAX TEMP:  74;

MAXWELL AFB    CLEAR     63  57  81 CALM      29.77R
6HR MIN TEMP:  60; 6HR MAX TEMP:  77;

GREENVILLE     FAIR      62  55  77 S3        29.78S
6HR MIN TEMP:  60; 6HR MAX TEMP:  77;

$$

ALZ019-021-028-029-037-038-045>048-260700-
EAST CENTRAL ALABAMA

CITY           SKY/WX    TMP DP  RH WIND       PRES   REMARKS
ANNISTON       CLEAR     58  57  97 CALM      29.77F
6HR MIN TEMP:  58; 6HR MAX TEMP:  74;

ALEXANDER CITY CLEAR     56  54  94 CALM      29.78S
6HR MIN TEMP:  56; 6HR MAX TEMP:  75;

AUBURN         CLEAR     63  54  72 CALM      29.80S
6HR MIN TEMP:  63; 6HR MAX TEMP:  74;

$$

ALZ051>064-260700-
SOUTHWEST ALABAMA

CITY           SKY/WX    TMP DP  RH WIND       PRES   REMARKS
MOBILE         CLEAR     61  56  83 S3        29.79F
6HR MIN TEMP:  60; 6HR MAX TEMP:  72;

BROOKLEY FIELD CLEAR     67  60  78 S3        29.80S
6HR MIN TEMP:  66; 6HR MAX TEMP:  73;

EVERGREEN      PTCLDY    59  55  87 CALM      29.79S
6HR MIN TEMP:  59; 6HR MAX TEMP:  75;

$$

ALZ049-050-065>069-260700-
SOUTHEAST ALABAMA

CITY           SKY/WX    TMP DP  RH WIND       PRES   REMARKS
DOTHAN         CLEAR     62  60  93 SW6       29.84S
6HR MIN TEMP:  62; 6HR MAX TEMP:  76;

OZARK          CLEAR     62  58  88 S5        29.80S
6HR MIN TEMP:  62; 6HR MAX TEMP:  76;

TROY           CLEAR     57  56  96 CALM      29.80S
6HR MIN TEMP:  57; 6HR MAX TEMP:  74;

EUFAULA        FAIR      56  53  90 S3        29.79S
6HR MIN TEMP:  56; 6HR MAX TEMP:  77;

$$



USA.gov is the U.S. government's official web portal to all federal, state and local government web resources and services.